Change the Weather History Date:

Thursday, May 15, 2014

  Actual Average (KBAD) Record (KBAD)
Temperature  
Mean Temperature 58 °F -  
Max Temperature 75 °F 81 °F 89 °F (2001)
Min Temperature 41 °F 61 °F 42 °F (2014)
Degree Days  
Heating Degree Days 7    
Growing Degree Days 8 (Base 50)    
Moisture  
Dew Point 46 °F    
Average Humidity 71    
Maximum Humidity 97    
Minimum Humidity 33    
Precipitation  
Precipitation 0.06 in - - ()
Sea Level Pressure  
Sea Level Pressure 30.20 in    
Wind  
Wind Speed 2 mph (SW)    
Max Wind Speed 10 mph    
Max Gust Speed 28 mph    
Visibility 10 miles    
Events Rain , Thunderstorm    
Averages and records for this station are not official NWS values.
T = Trace of Precipitation, MM = Missing Value Source: NWS Daily Summary

Daily Weather History Graph

Daily Weather History Graph

Search for Another Location

Airport or City:

Trip Planner

Search our weather history database for the weather conditions in past years. The results will help you decide how hot, cold, wet, or windy it might be!

Date:

Astronomy

May. 15, 2014 Rise Set
Actual Time 6:14 AM CDT 8:04 PM CDT
Civil Twilight 5:47 AM CDT 8:32 PM CDT
Nautical Twilight 5:14 AM CDT 9:04 PM CDT
Astronomical Twilight 4:40 AM CDT 9:39 PM CDT
Moon 9:13 PM CDT (5/15) 7:01 AM CDT (5/15)
Length of Visible Light 14h 44m
Length of Day
13h 50m
Full, 99% of the Moon is Illuminated
May 15
Full
May 21
Last Quarter
May 28
New
Jun 5
First Quarter
Jun 12
Full

Hourly Weather History & Observations

Time (CDT) Temp. Dew Point Humidity Pressure Visibility Wind Dir Wind Speed Gust Speed Precip Events Conditions
12:15 AM 46.9 °F 45.5 °F 95% 30.23 in 7.0 mi Calm Calm - N/A   Clear
12:35 AM 46.6 °F 45.0 °F 94% 30.23 in 7.0 mi Calm Calm - N/A   Clear
12:55 AM 45.9 °F 44.4 °F 95% 30.23 in 7.0 mi Calm Calm - N/A   Clear
1:15 AM 45.9 °F 44.6 °F 95% 30.23 in 10.0 mi Calm Calm - N/A   Clear
1:30 AM 45.5 °F 43.9 °F 94% 30.22 in 7.0 mi Calm Calm - N/A   Clear
1:55 AM 44.8 °F 43.3 °F 95% 30.22 in 10.0 mi Calm Calm - N/A   Clear
2:15 AM 44.8 °F 43.5 °F 95% 30.21 in 10.0 mi Calm Calm - N/A   Clear
2:35 AM 44.1 °F 42.8 °F 95% 30.21 in 10.0 mi Calm Calm - N/A   Clear
2:55 AM 43.9 °F 42.4 °F 95% 30.21 in 10.0 mi Calm Calm - N/A   Clear
3:15 AM 43.9 °F 42.4 °F 95% 30.21 in 10.0 mi Calm Calm - N/A   Clear
3:35 AM 43.7 °F 42.1 °F 94% 30.21 in 10.0 mi Calm Calm - N/A   Clear
3:55 AM 43.0 °F 41.5 °F 95% 30.21 in 7.0 mi Calm Calm - N/A   Clear
4:15 AM 42.8 °F 41.5 °F 95% 30.21 in 10.0 mi Calm Calm - N/A   Clear
4:35 AM 42.6 °F 41.0 °F 94% 30.21 in 10.0 mi Calm Calm - N/A   Clear
4:55 AM 42.3 °F 41.0 °F 95% 30.21 in 7.0 mi Calm Calm - N/A   Clear
5:15 AM 42.4 °F 41.2 °F 95% 30.21 in 10.0 mi Calm Calm - N/A   Clear
5:35 AM 41.9 °F 40.6 °F 95% 30.21 in 5.0 mi Calm Calm - N/A   Clear
5:55 AM 41.9 °F 40.5 °F 95% 30.22 in 10.0 mi Calm Calm - N/A   Clear
6:15 AM 41.5 °F 40.3 °F 95% 30.22 in 5.0 mi Calm Calm - N/A   Clear
6:35 AM 41.0 °F 40.1 °F 97% 30.23 in 10.0 mi Calm Calm - N/A   Clear
6:55 AM 42.3 °F 41.2 °F 96% 30.24 in 10.0 mi Calm Calm - N/A   Clear
7:15 AM 45.5 °F 44.1 °F 95% 30.24 in 10.0 mi Calm Calm - N/A   Clear
7:35 AM 47.3 °F 45.9 °F 95% 30.25 in 10.0 mi Calm Calm - N/A   Clear
7:50 AM 48.9 °F 47.5 °F 95% 30.25 in 10.0 mi Calm Calm - N/A   Clear
8:15 AM 51.8 °F 48.4 °F 88% 30.25 in 10.0 mi Calm Calm - N/A   Clear
8:35 AM 54.0 °F 47.7 °F 79% 30.26 in 10.0 mi WSW 3.5 mph - N/A   Clear
8:55 AM 55.4 °F 48.2 °F 77% 30.26 in 10.0 mi WSW 3.5 mph - N/A   Clear
9:15 AM 56.8 °F 48.0 °F 72% 30.27 in 10.0 mi West 5.8 mph - N/A   Clear
9:35 AM 58.6 °F 48.0 °F 68% 30.27 in 10.0 mi West 5.8 mph - N/A   Clear
9:55 AM 59.9 °F 44.2 °F 56% 30.27 in 10.0 mi West 5.8 mph - N/A   Clear
10:15 AM 61.3 °F 45.1 °F 55% 30.27 in 10.0 mi SW 6.9 mph - N/A   Clear
10:35 AM 62.1 °F 43.5 °F 51% 30.28 in 10.0 mi WSW 9.2 mph - N/A   Clear
10:55 AM 63.3 °F 42.4 °F 46% 30.28 in 10.0 mi WSW 5.8 mph - N/A   Clear
11:15 AM 63.9 °F 42.1 °F 45% 30.28 in 10.0 mi West 5.8 mph - N/A   Clear
11:35 AM 64.9 °F 42.8 °F 45% 30.27 in 10.0 mi Calm Calm - N/A   Clear
11:55 AM 65.5 °F 43.7 °F 45% 30.27 in 10.0 mi SW 6.9 mph - N/A   Clear
12:35 PM 68.0 °F 44.4 °F 43% 30.26 in 10.0 mi SSW 8.1 mph - N/A   Clear
12:55 PM 68.5 °F 44.1 °F 41% 30.25 in 10.0 mi WSW 4.6 mph - N/A   Clear
1:15 PM 69.4 °F 44.1 °F 40% 30.24 in 10.0 mi SSW 4.6 mph - N/A   Clear
2:15 PM 71.4 °F 44.1 °F 37% 30.21 in 10.0 mi SW 6.9 mph - N/A   Clear
2:30 PM 71.8 °F 44.4 °F 37% 30.20 in 10.0 mi WSW 5.8 mph - N/A   Clear
2:55 PM 72.3 °F 44.1 °F 36% 30.19 in 10.0 mi WSW 3.5 mph - N/A   Clear
3:20 PM 73.4 °F 45.1 °F 36% 30.17 in 10.0 mi SSW 5.8 mph - N/A   Clear
3:35 PM 73.2 °F 44.8 °F 36% 30.17 in 10.0 mi SW 4.6 mph - N/A   Clear
3:55 PM 74.1 °F 45.7 °F 36% 30.16 in 10.0 mi SSW 10.4 mph - N/A   Clear
4:15 PM 73.9 °F 45.5 °F 36% 30.15 in 10.0 mi South 9.2 mph - N/A   Clear
4:35 PM 74.3 °F 46.0 °F 36% 30.14 in 10.0 mi SSW 5.8 mph 16.1 mph N/A   Clear
4:55 PM 74.7 °F 45.3 °F 35% 30.13 in 10.0 mi WSW 6.9 mph - N/A   Clear
5:15 PM 75.2 °F 44.1 °F 33% 30.12 in 10.0 mi WSW 6.9 mph - N/A   Clear
5:35 PM 74.5 °F 44.2 °F 34% 30.11 in 10.0 mi SW 8.1 mph - N/A Thunderstorm Clear
5:55 PM 74.7 °F 43.9 °F 33% 30.10 in 10.0 mi SW 5.8 mph - N/A   Clear
6:15 PM 74.3 °F 45.1 °F 35% 30.10 in 10.0 mi SSW 3.5 mph - N/A   Clear
6:35 PM 73.4 °F 46.2 °F 38% 30.09 in 10.0 mi SW 4.6 mph - N/A   Clear
6:55 PM 71.6 °F 46.8 °F 41% 30.10 in 10.0 mi SSW 3.5 mph - N/A Thunderstorm Clear
7:15 PM 69.8 °F 47.5 °F 45% 30.11 in 10.0 mi WSW 4.6 mph - N/A Thunderstorm Mostly Cloudy
7:35 PM 64.8 °F 51.8 °F 63% 30.16 in 10.0 mi NNW 10.4 mph 27.6 mph N/A Rain , Thunderstorm Light Thunderstorms and Rain
7:55 PM 62.1 °F 52.9 °F 72% 30.16 in 10.0 mi Calm Calm - N/A Thunderstorm Thunderstorm
8:15 PM 59.9 °F 52.7 °F 77% 30.15 in 10.0 mi NE 4.6 mph - N/A   Clear
8:35 PM 58.5 °F 52.9 °F 82% 30.15 in 10.0 mi ENE 4.6 mph - N/A   Clear
8:55 PM 57.4 °F 53.1 °F 85% 30.16 in 10.0 mi East 4.6 mph - N/A   Clear
9:15 PM 56.7 °F 52.9 °F 87% 30.16 in 10.0 mi ENE 4.6 mph - N/A   Clear
9:35 PM 56.5 °F 52.3 °F 86% 30.17 in 10.0 mi East 5.8 mph - N/A   Clear
9:55 PM 55.9 °F 52.0 °F 87% 30.17 in 10.0 mi East 6.9 mph - N/A Thunderstorm Thunderstorm
10:15 PM 56.3 °F 51.8 °F 85% 30.16 in 10.0 mi East 6.9 mph - N/A   Scattered Clouds
10:35 PM 56.3 °F 52.0 °F 85% 30.19 in 7.0 mi NE 4.6 mph - 0.03 in Rain , Thunderstorm Heavy Thunderstorms and Rain
10:55 PM 57.0 °F 51.8 °F 83% 30.20 in 7.0 mi East 5.8 mph - 0.05 in Rain , Thunderstorm Heavy Thunderstorms and Rain
11:15 PM 56.5 °F 52.0 °F 85% 30.18 in 10.0 mi SSE 5.8 mph - N/A Rain Light Rain
11:35 PM 55.8 °F 52.3 °F 88% 30.16 in 10.0 mi ENE 3.5 mph - 0.01 in   Scattered Clouds
11:55 PM 55.2 °F 52.5 °F 91% 30.16 in 10.0 mi East 3.5 mph - 0.01 in   Scattered Clouds